Weather History for PHNG - November, 2012

Change the Weather History Date:

Sunday, November 4, 2012

  Actual Average Record
Temperature  
Mean Temperature 78 °F -  
Max Temperature 84 °F 79 °F 87 °F (2006)
Min Temperature 71 °F 71 °F 70 °F (1999)
Cooling Degree Days 12    
Growing Degree Days 28 (Base 50)    
Moisture  
Dew Point 66 °F    
Average Humidity 72    
Maximum Humidity 85    
Minimum Humidity 56    
Precipitation  
Precipitation 0.00 in - - ()
Sea Level Pressure  
Sea Level Pressure 29.96 in    
Wind  
Wind Speed 1 mph (NNE)    
Max Wind Speed 8 mph    
Max Gust Speed -    
Visibility 10 miles    
Events      
Averages and records for this station are not official NWS values.
T = Trace of Precipitation, MM = Missing Value Source: NWS Daily Summary

Daily Weather History Graph

Daily Weather History Graph

Search for Another Location

Airport or City:

Trip Planner

Search our weather history database for the weather conditions in past years. The results will help you decide how hot, cold, wet, or windy it might be!

Date:

Astronomy

Nov. 04, 2012 Rise Set
Actual Time 6:36 AM HST 5:52 PM HST
Civil Twilight 6:13 AM HST 6:15 PM HST
Nautical Twilight 5:46 AM HST 6:42 PM HST
Astronomical Twilight 5:20 AM HST 7:08 PM HST
Moon 10:46 PM HST (11/4) 11:20 AM HST (11/4)
Length of Visible Light 12h 02m
Length of Day
11h 16m
Waning Gibbous, 70% of the Moon is Illuminated
Nov 4
Waning Gibbous
Nov 6
Last Quarter
Nov 13
New
Nov 20
First Quarter
Nov 28
Full

Hourly Weather History & Observations

Time (HST) Temp. Heat Index Dew Point Humidity Pressure Visibility Wind Dir Wind Speed Gust Speed Precip Events Conditions
12:57 AM 75.2 °F - 66.2 °F 73% 29.96 in 10.0 mi Calm Calm - N/A   Partly Cloudy
1:57 AM 75.2 °F - 68.5 °F 80% 29.96 in 10.0 mi Calm Calm - N/A   Partly Cloudy
2:57 AM 75.2 °F - 68.0 °F 78% 29.95 in 10.0 mi Calm Calm - N/A   Partly Cloudy
3:57 AM 73.4 °F - 68.7 °F 85% 29.94 in 10.0 mi Calm Calm - N/A   Clear
4:57 AM 73.4 °F - 64.9 °F 75% 29.94 in 10.0 mi Calm Calm - N/A   Partly Cloudy
5:57 AM 71.6 °F - 66.2 °F 83% 29.95 in 10.0 mi Calm Calm - N/A   Clear
6:57 AM 71.6 °F - 66.2 °F 83% 29.96 in 10.0 mi Calm Calm - N/A   Partly Cloudy
7:57 AM 73.4 °F - 66.2 °F 78% 29.97 in 10.0 mi Calm Calm - N/A   Partly Cloudy
8:57 AM 73.4 °F - 66.9 °F 80% 29.98 in 10.0 mi Calm Calm - N/A   Partly Cloudy
9:57 AM 80.6 °F 82.7 °F 66.0 °F 61% 29.99 in 10.0 mi NNE 5.8 mph - N/A   Partly Cloudy
10:57 AM 84.2 °F 87.9 °F 69.1 °F 60% 29.97 in 10.0 mi NE 8.1 mph - N/A   Partly Cloudy
11:57 AM 84.2 °F 87.3 °F 68.0 °F 58% 29.96 in 10.0 mi ENE 6.9 mph - N/A   Scattered Clouds
12:57 PM 84.2 °F 86.8 °F 66.9 °F 56% 29.95 in 10.0 mi Variable 6.9 mph - N/A   Scattered Clouds
1:57 PM 78.8 °F - 66.9 °F 67% 29.94 in 10.0 mi North 6.9 mph - N/A   Scattered Clouds
2:57 PM 80.6 °F 82.7 °F 66.0 °F 61% 29.93 in 10.0 mi North 8.1 mph - N/A   Scattered Clouds
3:57 PM 80.6 °F 82.4 °F 64.9 °F 59% 29.94 in 10.0 mi NNE 6.9 mph - N/A   Scattered Clouds
4:57 PM 78.8 °F - 64.9 °F 62% 29.94 in 10.0 mi NE 3.5 mph - N/A   Scattered Clouds
5:57 PM 75.2 °F - 64.9 °F 70% 29.95 in 10.0 mi Calm Calm - N/A   Scattered Clouds
6:57 PM 75.2 °F - 64.9 °F 70% 29.96 in 10.0 mi Calm Calm - N/A   Partly Cloudy
7:57 PM 75.2 °F - 64.0 °F 68% 29.98 in 10.0 mi Calm Calm - N/A   Clear
8:57 PM 73.4 °F - 64.9 °F 75% 29.98 in 10.0 mi Calm Calm - N/A   Clear
9:57 PM 73.4 °F - 66.0 °F 78% 29.99 in 10.0 mi Calm Calm - N/A   Clear
10:57 PM 73.4 °F - 66.7 °F 80% 29.99 in 10.0 mi Calm Calm - N/A   Clear
11:16 PM 73.4 °F - 66.2 °F 78% 30.00 in 6.2 mi Calm Calm - N/A   Mostly Cloudy
11:41 PM 73.4 °F - 66.2 °F 78% 30.00 in 6.2 mi Calm Calm - N/A   Scattered Clouds
11:57 PM 73.4 °F - 66.9 °F 80% 29.98 in 10.0 mi Calm Calm - N/A   Clear